STARLINK-2108 (47387 NORAD) Tracking and Keplerian Element Data
This shows tracking and keplerian element data for the satellite.
Feedback or suggestion? Click here.
Element | Value |
Catalog | 47387 |
Name | STARLINK-2108 |
Epoch Orbit | 1347 |
Epoch Day | 106.25002315 |
Epoch Year | 2021 |
RAAN | 170.2258 |
Inclination | 53.0532 |
Eccentricity | 8.65E-05 |
Argument of Perigee | 85.3113 |
Mean Anonmoly | 120.5679 |
Mean Motion | 15.06418745 |
Decay Rate | -0.00015154 |
L1 | 1 47387U 21005AQ 21106.25002315 -.00015154 00000-0 -10001-2 0 9997 |
L2 | 2 47387 53.0532 170.2258 0000865 85.3113 120.5679 15.06418745 13470 |
Live tracking and technical data element details for STARLINK-2108 (NORAD 47387). STARLINK-2108 can be tracked NOW for your location showing map with azimuth and elevation plus other details from your city location.
Track the satellite on the map from your city or location and see movement details for azimuth, elevation, latitude, longitude, range, height, and movement on the map or in text.
IsCatalogInMostPopularTable: catalog: 47387, numindb: 17
Update: records affected: 1
GetName: 47387 STARLINK-2108
Hit Count: updated at: Fri, 16 Apr 2021 12:18:51 GMT